Time,TemperatureF,DewpointF,PressureIn,WindDirection,WindDirectionDegrees,WindSpeedMPH,WindSpeedGustMPH,Humidity,HourlyPrecipIn,Conditions,Clouds,dailyrainin,SoftwareType,DateUTC
2013-03-17 00:00:00,45.5,45.2,29.95,West,270,0.0,0.0,99,0.00,,,0.01,Wunderground v.1.15,2013-03-17 07:00:00,
2013-03-17 00:05:00,45.4,45.1,29.95,West,270,0.0,1.0,99,0.00,,,0.01,Wunderground v.1.15,2013-03-17 07:05:00,
2013-03-17 00:10:00,45.2,44.9,29.95,West,270,0.0,0.0,99,0.00,,,0.01,Wunderground v.1.15,2013-03-17 07:10:00,
2013-03-17 00:15:00,45.2,44.9,29.95,West,270,0.0,1.0,99,0.00,,,0.01,Wunderground v.1.15,2013-03-17 07:15:00,
2013-03-17 00:20:00,45.2,44.9,29.95,West,270,0.0,0.0,99,0.00,,,0.01,Wunderground v.1.15,2013-03-17 07:20:00,
2013-03-17 00:25:00,45.4,45.4,29.95,West,270,0.0,0.0,100,0.00,,,0.01,Wunderground v.1.15,2013-03-17 07:25:00,
2013-03-17 00:30:00,45.5,45.5,29.95,West,270,0.0,0.0,100,0.00,,,0.01,Wunderground v.1.15,2013-03-17 07:30:00,
2013-03-17 00:35:00,45.5,45.5,29.95,West,270,0.0,0.0,100,0.00,,,0.01,Wunderground v.1.15,2013-03-17 07:35:00,
2013-03-17 00:40:00,45.5,45.5,29.95,West,270,0.0,0.0,100,0.00,,,0.01,Wunderground v.1.15,2013-03-17 07:40:00,
2013-03-17 00:45:00,45.4,45.4,29.95,West,270,0.0,0.0,100,0.00,,,0.01,Wunderground v.1.15,2013-03-17 07:45:00,
2013-03-17 00:51:00,44.9,44.9,29.95,West,270,0.0,0.0,100,0.00,,,0.01,Wunderground v.1.15,2013-03-17 07:51:00,
2013-03-17 00:56:00,44.8,44.8,29.95,West,270,0.0,0.0,100,0.00,,,0.01,Wunderground v.1.15,2013-03-17 07:56:00,
2013-03-17 01:01:00,44.6,44.6,29.95,West,270,0.0,0.0,100,0.00,,,0.00,Wunderground v.1.15,2013-03-17 08:01:00,
2013-03-17 01:06:00,44.5,44.5,29.95,West,270,1.0,2.0,100,0.00,,,0.00,Wunderground v.1.15,2013-03-17 08:06:00,
2013-03-17 01:11:00,44.5,44.5,29.95,West,270,1.0,1.0,100,0.00,,,0.00,Wunderground v.1.15,2013-03-17 08:11:00,
2013-03-17 01:16:00,44.9,44.9,29.94,West,270,0.0,1.0,100,0.00,,,0.00,Wunderground v.1.15,2013-03-17 08:16:00,
2013-03-17 01:21:00,45.2,45.2,29.94,West,270,0.0,0.0,100,0.00,,,0.00,Wunderground v.1.15,2013-03-17 08:21:00,
2013-03-17 01:26:00,45.2,45.2,29.94,West,270,0.0,0.0,100,0.00,,,0.00,Wunderground v.1.15,2013-03-17 08:26:00,
2013-03-17 01:32:00,45.2,45.2,29.95,West,270,1.0,1.0,100,0.00,,,0.00,Wunderground v.1.15,2013-03-17 08:32:00,
2013-03-17 01:37:00,45.2,45.2,29.95,West,270,0.0,1.0,100,0.00,,,0.00,Wunderground v.1.15,2013-03-17 08:37:00,
2013-03-17 01:42:00,45.1,45.1,29.95,West,270,0.0,0.0,100,0.00,,,0.00,Wunderground v.1.15,2013-03-17 08:42:00,
2013-03-17 01:47:00,44.9,44.9,29.95,West,270,1.0,1.0,100,0.00,,,0.00,Wunderground v.1.15,2013-03-17 08:47:00,
2013-03-17 01:52:00,44.6,44.6,29.95,West,270,0.0,1.0,100,0.00,,,0.00,Wunderground v.1.15,2013-03-17 08:52:00,
2013-03-17 01:57:00,44.6,44.6,29.95,West,270,0.0,1.0,100,0.00,,,0.00,Wunderground v.1.15,2013-03-17 08:57:00,
2013-03-17 02:02:00,44.8,44.8,29.95,West,270,0.0,1.0,100,0.00,,,0.00,Wunderground v.1.15,2013-03-17 09:02:00,
2013-03-17 02:07:00,45.1,45.1,29.95,West,270,0.0,1.0,100,0.00,,,0.00,Wunderground v.1.15,2013-03-17 09:07:00,
2013-03-17 02:12:00,46.0,46.0,29.95,West,270,2.0,2.0,100,0.00,,,0.00,Wunderground v.1.15,2013-03-17 09:12:00,
2013-03-17 02:18:00,48.3,48.3,29.95,West,270,0.0,3.0,100,0.00,,,0.00,Wunderground v.1.15,2013-03-17 09:18:00,
2013-03-17 02:23:00,48.9,48.1,29.95,West,270,0.0,1.0,97,0.00,,,0.00,Wunderground v.1.15,2013-03-17 09:23:00,
2013-03-17 02:28:00,48.5,47.1,29.95,West,270,0.0,1.0,95,0.00,,,0.00,Wunderground v.1.15,2013-03-17 09:28:00,
2013-03-17 02:33:00,47.9,46.3,29.95,West,270,1.0,2.0,94,0.00,,,0.00,Wunderground v.1.15,2013-03-17 09:33:00,
2013-03-17 02:38:00,47.4,45.8,29.95,West,270,1.0,2.0,94,0.00,,,0.00,Wunderground v.1.15,2013-03-17 09:38:00,
2013-03-17 02:43:00,46.5,44.9,29.95,SSE,167,0.0,3.0,94,0.00,,,0.00,Wunderground v.1.15,2013-03-17 09:43:00,
2013-03-17 02:48:00,45.8,44.2,29.95,SSW,194,2.0,3.0,94,0.00,,,0.00,Wunderground v.1.15,2013-03-17 09:48:00,
2013-03-17 02:53:00,45.5,43.9,29.95,SSW,194,0.0,0.0,94,0.00,,,0.00,Wunderground v.1.15,2013-03-17 09:53:00,
2013-03-17 02:58:00,45.4,44.1,29.95,SSW,194,0.0,1.0,95,0.00,,,0.00,Wunderground v.1.15,2013-03-17 09:58:00,
2013-03-17 03:03:00,45.2,43.9,29.95,SSW,194,0.0,0.0,95,0.00,,,0.00,Wunderground v.1.15,2013-03-17 10:03:00,
2013-03-17 03:08:00,46.0,44.9,29.95,WSW,240,0.0,3.0,96,0.00,,,0.00,Wunderground v.1.15,2013-03-17 10:08:00,
2013-03-17 03:13:00,46.1,44.7,29.95,WSW,240,0.0,1.0,95,0.00,,,0.00,Wunderground v.1.15,2013-03-17 10:13:00,
2013-03-17 03:18:00,46.0,44.6,29.95,WSW,240,0.0,1.0,95,0.00,,,0.00,Wunderground v.1.15,2013-03-17 10:18:00,
2013-03-17 03:23:00,46.1,44.5,29.95,West,260,3.0,4.0,94,0.00,,,0.00,Wunderground v.1.15,2013-03-17 10:23:00,
2013-03-17 03:28:00,47.0,44.8,29.95,West,278,1.0,5.0,92,0.00,,,0.00,Wunderground v.1.15,2013-03-17 10:28:00,
2013-03-17 03:33:00,48.5,45.4,29.95,West,276,1.0,4.0,89,0.00,,,0.00,Wunderground v.1.15,2013-03-17 10:33:00,
2013-03-17 03:38:00,49.2,45.8,29.95,West,276,0.0,4.0,88,0.00,,,0.00,Wunderground v.1.15,2013-03-17 10:38:00,
2013-03-17 03:43:00,49.1,45.7,29.95,West,276,1.0,2.0,88,0.00,,,0.00,Wunderground v.1.15,2013-03-17 10:43:00,
2013-03-17 03:48:00,48.8,45.4,29.95,West,276,3.0,3.0,88,0.00,,,0.00,Wunderground v.1.15,2013-03-17 10:48:00,
2013-03-17 03:53:00,48.5,45.4,29.95,West,276,0.0,1.0,89,0.00,,,0.00,Wunderground v.1.15,2013-03-17 10:53:00,
2013-03-17 03:58:00,48.2,45.1,29.95,West,276,0.0,1.0,89,0.00,,,0.00,Wunderground v.1.15,2013-03-17 10:58:00,
2013-03-17 04:03:00,47.9,45.1,29.95,West,276,0.0,0.0,90,0.00,,,0.00,Wunderground v.1.15,2013-03-17 11:03:00,
2013-03-17 04:08:00,47.7,45.2,29.95,West,276,0.0,1.0,91,0.00,,,0.00,Wunderground v.1.15,2013-03-17 11:08:00,
2013-03-17 04:13:00,48.0,45.8,29.95,West,276,2.0,4.0,92,0.00,,,0.00,Wunderground v.1.15,2013-03-17 11:13:00,
2013-03-17 04:18:00,49.2,47.0,29.94,West,267,3.0,4.0,92,0.00,,,0.00,Wunderground v.1.15,2013-03-17 11:18:00,
2013-03-17 04:23:00,49.8,47.0,29.94,West,266,2.0,3.0,90,0.00,,,0.00,Wunderground v.1.15,2013-03-17 11:23:00,
2013-03-17 04:28:00,50.2,47.1,29.94,West,266,2.0,3.0,89,0.00,,,0.00,Wunderground v.1.15,2013-03-17 11:28:00,
2013-03-17 04:33:00,50.8,47.1,29.94,West,266,1.0,4.0,87,0.00,,,0.00,Wunderground v.1.15,2013-03-17 11:33:00,
2013-03-17 04:38:00,51.1,47.1,29.94,West,264,0.0,4.0,86,0.00,,,0.00,Wunderground v.1.15,2013-03-17 11:38:00,
2013-03-17 04:43:00,50.8,46.8,29.94,West,264,0.0,2.0,86,0.00,,,0.00,Wunderground v.1.15,2013-03-17 11:43:00,
2013-03-17 04:48:00,50.2,46.2,29.94,West,264,0.0,2.0,86,0.00,,,0.00,Wunderground v.1.15,2013-03-17 11:48:00,
2013-03-17 04:53:00,49.6,45.9,29.94,West,264,0.0,2.0,87,0.00,,,0.00,Wunderground v.1.15,2013-03-17 11:53:00,
2013-03-17 04:58:00,49.1,45.7,29.94,West,264,1.0,2.0,88,0.00,,,0.00,Wunderground v.1.15,2013-03-17 11:58:00,
2013-03-17 05:03:00,48.8,45.7,29.94,West,264,0.0,1.0,89,0.00,,,0.00,Wunderground v.1.15,2013-03-17 12:03:00,
2013-03-17 05:08:00,48.5,45.4,29.94,West,264,0.0,1.0,89,0.00,,,0.00,Wunderground v.1.15,2013-03-17 12:08:00,
2013-03-17 05:13:00,48.5,45.4,29.94,West,264,1.0,2.0,89,0.00,,,0.00,Wunderground v.1.15,2013-03-17 12:13:00,
2013-03-17 05:18:00,48.5,45.7,29.94,West,264,0.0,2.0,90,0.00,,,0.00,Wunderground v.1.15,2013-03-17 12:18:00,
2013-03-17 05:23:00,48.3,45.5,29.94,West,264,0.0,2.0,90,0.00,,,0.00,Wunderground v.1.15,2013-03-17 12:23:00,
2013-03-17 05:28:00,48.3,45.8,29.94,West,264,0.0,2.0,91,0.00,,,0.00,Wunderground v.1.15,2013-03-17 12:28:00,
2013-03-17 05:33:00,48.3,45.8,29.94,West,264,0.0,1.0,91,0.00,,,0.00,Wunderground v.1.15,2013-03-17 12:33:00,
2013-03-17 05:38:00,48.2,46.0,29.94,West,264,1.0,1.0,92,0.00,,,0.00,Wunderground v.1.15,2013-03-17 12:38:00,
2013-03-17 05:46:00,47.9,45.7,29.94,West,264,0.0,0.0,92,0.00,,,0.00,Wunderground v.1.15,2013-03-17 12:46:00,
2013-03-17 05:51:00,47.7,45.5,29.94,West,264,0.0,0.0,92,0.00,,,0.00,Wunderground v.1.15,2013-03-17 12:51:00,
2013-03-17 05:56:00,47.4,45.5,29.94,West,264,1.0,2.0,93,0.00,,,0.00,Wunderground v.1.15,2013-03-17 12:56:00,
2013-03-17 06:01:00,47.4,45.5,29.95,West,264,1.0,2.0,93,0.00,,,0.00,Wunderground v.1.15,2013-03-17 13:01:00,
2013-03-17 06:06:00,47.4,45.5,29.95,West,264,0.0,2.0,93,0.00,,,0.00,Wunderground v.1.15,2013-03-17 13:06:00,
2013-03-17 06:11:00,47.3,45.1,29.95,West,264,0.0,1.0,92,0.00,,,0.00,Wunderground v.1.15,2013-03-17 13:11:00,
2013-03-17 06:16:00,47.1,44.9,29.95,West,264,1.0,1.0,92,0.00,,,0.00,Wunderground v.1.15,2013-03-17 13:16:00,
2013-03-17 06:21:00,47.3,45.1,29.95,West,264,0.0,0.0,92,0.00,,,0.00,Wunderground v.1.15,2013-03-17 13:21:00,
2013-03-17 06:26:00,47.1,44.6,29.95,West,264,0.0,2.0,91,0.00,,,0.00,Wunderground v.1.15,2013-03-17 13:26:00,
2013-03-17 06:31:00,47.1,44.6,29.95,West,264,2.0,2.0,91,0.00,,,0.00,Wunderground v.1.15,2013-03-17 13:31:00,
2013-03-17 06:36:00,47.0,44.8,29.95,West,264,1.0,2.0,92,0.00,,,0.00,Wunderground v.1.15,2013-03-17 13:36:00,
2013-03-17 06:41:00,47.0,44.8,29.95,West,264,2.0,2.0,92,0.00,,,0.00,Wunderground v.1.15,2013-03-17 13:41:00,
2013-03-17 06:46:00,46.5,44.3,29.95,West,264,0.0,2.0,92,0.00,,,0.00,Wunderground v.1.15,2013-03-17 13:46:00,
2013-03-17 06:51:00,46.8,44.6,29.95,West,264,2.0,3.0,92,0.00,,,0.00,Wunderground v.1.15,2013-03-17 13:51:00,
2013-03-17 06:57:00,47.4,45.2,29.95,West,264,0.0,3.0,92,0.00,,,0.00,Wunderground v.1.15,2013-03-17 13:57:00,
2013-03-17 07:02:00,47.7,44.9,29.96,West,264,0.0,3.0,90,0.00,,,0.00,Wunderground v.1.15,2013-03-17 14:02:00,
2013-03-17 07:07:00,48.2,45.1,29.96,West,264,1.0,3.0,89,0.00,,,0.00,Wunderground v.1.15,2013-03-17 14:07:00,
2013-03-17 07:12:00,48.8,45.4,29.96,West,264,1.0,1.0,88,0.00,,,0.00,Wunderground v.1.15,2013-03-17 14:12:00,
2013-03-17 07:17:00,48.9,45.2,29.97,West,264,1.0,2.0,87,0.00,,,0.00,Wunderground v.1.15,2013-03-17 14:17:00,
2013-03-17 07:22:00,49.1,45.4,29.97,West,264,0.0,1.0,87,0.00,,,0.00,Wunderground v.1.15,2013-03-17 14:22:00,
2013-03-17 07:27:00,49.2,45.5,29.97,West,264,0.0,1.0,87,0.00,,,0.00,Wunderground v.1.15,2013-03-17 14:27:00,
2013-03-17 07:32:00,49.4,45.7,29.97,West,264,0.0,0.0,87,0.00,,,0.00,Wunderground v.1.15,2013-03-17 14:32:00,
2013-03-17 07:37:00,49.6,46.5,29.97,West,264,3.0,4.0,89,0.00,,,0.00,Wunderground v.1.15,2013-03-17 14:37:00,
2013-03-17 07:42:00,51.0,47.6,29.97,West,266,3.0,5.0,88,0.00,,,0.00,Wunderground v.1.15,2013-03-17 14:42:00,
2013-03-17 07:47:00,51.9,47.8,29.97,West,266,2.0,5.0,86,0.00,,,0.00,Wunderground v.1.15,2013-03-17 14:47:00,
2013-03-17 07:52:00,52.3,47.9,29.97,West,266,0.0,3.0,85,0.00,,,0.00,Wunderground v.1.15,2013-03-17 14:52:00,
2013-03-17 07:57:00,52.6,48.5,29.97,West,266,0.0,3.0,86,0.00,,,0.00,Wunderground v.1.15,2013-03-17 14:57:00,
2013-03-17 08:02:00,52.9,48.5,29.97,West,266,0.0,0.0,85,0.00,,,0.00,Wunderground v.1.15,2013-03-17 15:02:00,
2013-03-17 08:07:00,53.5,49.4,29.97,West,266,0.0,0.0,86,0.00,,,0.00,Wunderground v.1.15,2013-03-17 15:07:00,
2013-03-17 08:12:00,54.1,50.0,29.97,West,266,0.0,0.0,86,0.00,,,0.00,Wunderground v.1.15,2013-03-17 15:12:00,
2013-03-17 08:17:00,54.7,50.0,29.98,West,266,0.0,0.0,84,0.00,,,0.00,Wunderground v.1.15,2013-03-17 15:17:00,
2013-03-17 08:22:00,55.1,50.4,29.98,West,266,0.0,0.0,84,0.00,,,0.00,Wunderground v.1.15,2013-03-17 15:22:00,
2013-03-17 08:27:00,55.6,50.5,29.98,West,266,0.0,0.0,83,0.00,,,0.00,Wunderground v.1.15,2013-03-17 15:27:00,
2013-03-17 08:32:00,55.7,50.3,29.98,West,266,0.0,0.0,82,0.00,,,0.00,Wunderground v.1.15,2013-03-17 15:32:00,
2013-03-17 08:37:00,55.7,50.3,29.98,West,266,0.0,0.0,82,0.00,,,0.00,Wunderground v.1.15,2013-03-17 15:37:00,
2013-03-17 08:42:00,55.6,50.2,29.98,West,266,0.0,0.0,82,0.00,,,0.00,Wunderground v.1.15,2013-03-17 15:42:00,
2013-03-17 08:47:00,55.7,50.0,29.98,West,266,0.0,2.0,81,0.00,,,0.00,Wunderground v.1.15,2013-03-17 15:47:00,
2013-03-17 08:52:00,56.0,49.9,29.98,West,279,1.0,3.0,80,0.00,,,0.00,Wunderground v.1.15,2013-03-17 15:52:00,
2013-03-17 08:57:00,56.3,49.9,29.98,West,274,0.0,4.0,79,0.00,,,0.00,Wunderground v.1.15,2013-03-17 15:57:00,
2013-03-17 09:02:00,56.3,49.9,30.00,West,274,0.0,1.0,79,0.00,,,0.00,Wunderground v.1.15,2013-03-17 16:02:00,
2013-03-17 09:07:00,56.2,50.1,30.00,West,274,2.0,3.0,80,0.00,,,0.00,Wunderground v.1.15,2013-03-17 16:07:00,
2013-03-17 09:12:00,56.0,50.3,30.00,West,278,1.0,5.0,81,0.00,,,0.00,Wunderground v.1.15,2013-03-17 16:12:00,
2013-03-17 09:17:00,56.2,50.8,29.99,West,278,0.0,5.0,82,0.00,,,0.00,Wunderground v.1.15,2013-03-17 16:17:00,
2013-03-17 09:22:00,56.7,50.9,29.99,West,278,1.0,2.0,81,0.00,,,0.00,Wunderground v.1.15,2013-03-17 16:22:00,
2013-03-17 09:27:00,58.4,50.9,29.99,West,278,0.0,2.0,76,0.00,,,0.00,Wunderground v.1.15,2013-03-17 16:27:00,
2013-03-17 09:32:00,59.9,51.6,29.98,West,278,0.0,1.0,74,0.00,,,0.00,Wunderground v.1.15,2013-03-17 16:32:00,
2013-03-17 09:37:00,61.2,51.7,29.98,West,278,1.0,2.0,71,0.00,,,0.00,Wunderground v.1.15,2013-03-17 16:37:00,
2013-03-17 09:42:00,61.5,52.4,29.98,ESE,105,0.0,3.0,72,0.00,,,0.00,Wunderground v.1.15,2013-03-17 16:42:00,
2013-03-17 09:47:00,61.5,52.8,29.99,ESE,105,0.0,3.0,73,0.00,,,0.00,Wunderground v.1.15,2013-03-17 16:47:00,
2013-03-17 09:52:00,61.3,52.9,29.99,ESE,105,2.0,3.0,74,0.00,,,0.00,Wunderground v.1.15,2013-03-17 16:52:00,
2013-03-17 09:57:00,61.3,53.3,29.99,ESE,105,0.0,3.0,75,0.00,,,0.00,Wunderground v.1.15,2013-03-17 16:57:00,
2013-03-17 10:02:00,61.5,53.5,29.99,ESE,105,0.0,2.0,75,0.00,,,0.00,Wunderground v.1.15,2013-03-17 17:02:00,
2013-03-17 10:08:00,61.6,52.5,29.99,East,86,2.0,4.0,72,0.00,,,0.00,Wunderground v.1.15,2013-03-17 17:08:00,
2013-03-17 10:13:00,61.6,52.9,29.99,East,96,1.0,4.0,73,0.00,,,0.00,Wunderground v.1.15,2013-03-17 17:13:00,
2013-03-17 10:18:00,62.0,53.2,29.99,East,94,2.0,4.0,73,0.00,,,0.00,Wunderground v.1.15,2013-03-17 17:18:00,
2013-03-17 10:23:00,63.1,53.5,29.99,ESE,104,0.0,3.0,71,0.00,,,0.00,Wunderground v.1.15,2013-03-17 17:23:00,
2013-03-17 10:28:00,62.9,52.6,29.99,WNW,283,3.0,9.0,69,0.00,,,0.00,Wunderground v.1.15,2013-03-17 17:28:00,
2013-03-17 10:33:00,61.5,53.1,30.00,West,281,3.0,4.0,74,0.00,,,0.00,Wunderground v.1.15,2013-03-17 17:33:00,
2013-03-17 10:38:00,61.0,51.9,30.00,SW,226,1.0,6.0,72,0.00,,,0.00,Wunderground v.1.15,2013-03-17 17:38:00,
2013-03-17 10:43:00,61.0,52.7,30.00,West,266,2.0,3.0,74,0.00,,,0.00,Wunderground v.1.15,2013-03-17 17:43:00,
2013-03-17 10:48:00,60.7,52.4,30.00,WNW,293,2.0,5.0,74,0.00,,,0.00,Wunderground v.1.15,2013-03-17 17:48:00,
2013-03-17 10:53:00,60.4,52.4,30.00,West,274,1.0,2.0,75,0.00,,,0.00,Wunderground v.1.15,2013-03-17 17:53:00,
2013-03-17 10:58:00,60.9,52.6,30.00,WSW,255,1.0,3.0,74,0.00,,,0.00,Wunderground v.1.15,2013-03-17 17:58:00,
2013-03-17 11:03:00,60.9,52.2,30.00,WSW,249,2.0,5.0,73,0.00,,,0.00,Wunderground v.1.15,2013-03-17 18:03:00,
2013-03-17 11:08:00,61.0,51.9,30.00,NW,307,3.0,5.0,72,0.00,,,0.00,Wunderground v.1.15,2013-03-17 18:08:00,
2013-03-17 11:13:00,61.5,51.6,30.00,West,273,1.0,9.0,70,0.00,,,0.00,Wunderground v.1.15,2013-03-17 18:13:00,
2013-03-17 11:18:00,61.8,52.7,30.00,West,276,1.0,9.0,72,0.00,,,0.00,Wunderground v.1.15,2013-03-17 18:18:00,
2013-03-17 11:23:00,61.5,52.0,30.00,West,272,3.0,6.0,71,0.00,,,0.00,Wunderground v.1.15,2013-03-17 18:23:00,
2013-03-17 11:28:00,60.7,51.6,30.00,West,269,3.0,6.0,72,0.00,,,0.00,Wunderground v.1.15,2013-03-17 18:28:00,
2013-03-17 11:33:00,59.9,51.2,30.00,SW,229,1.0,5.0,73,0.00,,,0.00,Wunderground v.1.15,2013-03-17 18:33:00,
2013-03-17 11:38:00,59.9,51.2,30.00,SW,217,2.0,5.0,73,0.00,,,0.00,Wunderground v.1.15,2013-03-17 18:38:00,
2013-03-17 11:43:00,59.8,51.9,30.00,South,182,2.0,4.0,75,0.00,,,0.00,Wunderground v.1.15,2013-03-17 18:43:00,
2013-03-17 11:48:00,59.8,51.9,30.00,SSW,192,0.0,4.0,75,0.00,,,0.00,Wunderground v.1.15,2013-03-17 18:48:00,
2013-03-17 11:53:00,60.1,51.0,30.00,SW,219,2.0,5.0,72,0.00,,,0.00,Wunderground v.1.15,2013-03-17 18:53:00,
2013-03-17 11:58:00,60.7,51.6,30.00,SW,219,0.0,5.0,72,0.00,,,0.00,Wunderground v.1.15,2013-03-17 18:58:00,
2013-03-17 12:03:00,61.8,52.3,30.00,South,179,0.0,2.0,71,0.00,,,0.00,Wunderground v.1.15,2013-03-17 19:03:00,
2013-03-17 12:08:00,63.2,52.9,30.00,West,265,2.0,2.0,69,0.00,,,0.00,Wunderground v.1.15,2013-03-17 19:08:00,
2013-03-17 12:13:00,64.3,53.1,30.00,WSW,254,0.0,2.0,67,0.00,,,0.00,Wunderground v.1.15,2013-03-17 19:13:00,
2013-03-17 12:18:00,64.8,53.2,30.00,North,1,0.0,2.0,66,0.00,,,0.00,Wunderground v.1.15,2013-03-17 19:18:00,
2013-03-17 12:23:00,64.7,53.5,30.00,NW,323,1.0,5.0,67,0.00,,,0.00,Wunderground v.1.15,2013-03-17 19:23:00,
2013-03-17 12:28:00,64.5,52.9,30.00,West,275,2.0,5.0,66,0.00,,,0.00,Wunderground v.1.15,2013-03-17 19:28:00,
2013-03-17 12:34:00,64.3,52.7,30.00,SSW,205,1.0,2.0,66,0.00,,,0.00,Wunderground v.1.15,2013-03-17 19:34:00,
2013-03-17 12:39:00,64.3,52.3,30.00,SW,224,1.0,3.0,65,0.00,,,0.00,Wunderground v.1.15,2013-03-17 19:39:00,
2013-03-17 12:44:00,64.7,51.4,29.99,SW,220,0.0,3.0,62,0.00,,,0.00,Wunderground v.1.15,2013-03-17 19:44:00,
2013-03-17 12:49:00,66.0,52.2,29.99,SW,220,0.0,3.0,61,0.00,,,0.00,Wunderground v.1.15,2013-03-17 19:49:00,
2013-03-17 12:54:00,67.3,51.5,29.99,SW,220,0.0,2.0,57,0.00,,,0.00,Wunderground v.1.15,2013-03-17 19:54:00,
2013-03-17 12:59:00,68.3,50.5,29.98,West,264,3.0,4.0,53,0.00,,,0.00,Wunderground v.1.15,2013-03-17 19:59:00,
2013-03-17 13:04:00,67.6,50.9,29.98,West,273,1.0,4.0,55,0.00,,,0.00,Wunderground v.1.15,2013-03-17 20:04:00,
2013-03-17 13:09:00,67.6,52.3,29.98,West,281,0.0,5.0,58,0.00,,,0.00,Wunderground v.1.15,2013-03-17 20:09:00,
2013-03-17 13:14:00,68.1,53.2,29.98,West,263,1.0,3.0,59,0.00,,,0.00,Wunderground v.1.15,2013-03-17 20:14:00,
2013-03-17 13:19:00,67.3,53.8,29.98,SSW,213,2.0,3.0,62,0.00,,,0.00,Wunderground v.1.15,2013-03-17 20:19:00,
2013-03-17 13:24:00,66.1,52.7,29.98,SW,234,2.0,3.0,62,0.00,,,0.00,Wunderground v.1.15,2013-03-17 20:24:00,
2013-03-17 13:29:00,64.7,52.2,29.97,WNW,299,2.0,6.0,64,0.00,,,0.00,Wunderground v.1.15,2013-03-17 20:29:00,
2013-03-17 13:34:00,63.5,51.5,29.97,WNW,290,4.0,8.0,65,0.00,,,0.00,Wunderground v.1.15,2013-03-17 20:34:00,
2013-03-17 13:39:00,62.3,51.6,29.97,West,278,4.0,8.0,68,0.00,,,0.00,Wunderground v.1.15,2013-03-17 20:39:00,
2013-03-17 13:44:00,61.5,51.6,29.97,West,262,2.0,6.0,70,0.00,,,0.00,Wunderground v.1.15,2013-03-17 20:44:00,
2013-03-17 13:49:00,60.2,50.0,29.97,WSW,245,1.0,8.0,69,0.00,,,0.00,Wunderground v.1.15,2013-03-17 20:49:00,
2013-03-17 13:54:00,59.3,50.3,29.97,WSW,255,3.0,7.0,72,0.00,,,0.00,Wunderground v.1.15,2013-03-17 20:54:00,
2013-03-17 13:59:00,60.1,50.7,29.97,SW,235,3.0,7.0,71,0.00,,,0.00,Wunderground v.1.15,2013-03-17 20:59:00,
2013-03-17 14:04:00,60.4,50.6,29.97,North,5,2.0,7.0,70,0.00,,,0.00,Wunderground v.1.15,2013-03-17 21:04:00,
2013-03-17 14:09:00,60.9,51.0,29.97,West,262,1.0,7.0,70,0.00,,,0.00,Wunderground v.1.15,2013-03-17 21:09:00,
2013-03-17 14:14:00,61.6,51.7,29.97,WSW,247,0.0,4.0,70,0.00,,,0.00,Wunderground v.1.15,2013-03-17 21:14:00,
2013-03-17 14:19:00,62.1,51.4,29.97,SE,142,1.0,4.0,68,0.00,,,0.00,Wunderground v.1.15,2013-03-17 21:19:00,
2013-03-17 14:24:00,62.0,51.3,29.97,SSE,165,0.0,3.0,68,0.00,,,0.00,Wunderground v.1.15,2013-03-17 21:24:00,
2013-03-17 14:29:00,62.4,51.7,29.96,SSE,156,0.0,3.0,68,0.00,,,0.00,Wunderground v.1.15,2013-03-17 21:29:00,
2013-03-17 14:34:00,63.1,52.0,29.96,North,0,3.0,6.0,67,0.00,,,0.00,Wunderground v.1.15,2013-03-17 21:34:00,
2013-03-17 14:39:00,63.5,51.9,29.96,WSW,237,0.0,6.0,66,0.00,,,0.00,Wunderground v.1.15,2013-03-17 21:39:00,
2013-03-17 14:44:00,64.0,51.6,29.95,SW,233,2.0,5.0,64,0.00,,,0.00,Wunderground v.1.15,2013-03-17 21:44:00,
2013-03-17 14:49:00,64.0,51.6,29.95,NW,326,3.0,5.0,64,0.00,,,0.00,Wunderground v.1.15,2013-03-17 21:49:00,
2013-03-17 14:54:00,63.1,51.6,29.95,NNW,346,2.0,6.0,66,0.00,,,0.00,Wunderground v.1.15,2013-03-17 21:54:00,
2013-03-17 14:59:00,62.6,51.9,29.95,NNW,347,4.0,6.0,68,0.00,,,0.00,Wunderground v.1.15,2013-03-17 21:59:00,
2013-03-17 15:04:00,61.8,51.1,29.95,South,188,2.0,4.0,68,0.00,,,0.00,Wunderground v.1.15,2013-03-17 22:04:00,
2013-03-17 15:09:00,60.9,51.0,29.95,NNE,31,0.0,4.0,70,0.00,,,0.00,Wunderground v.1.15,2013-03-17 22:09:00,
2013-03-17 15:14:00,60.7,50.9,29.95,North,357,3.0,7.0,70,0.00,,,0.00,Wunderground v.1.15,2013-03-17 22:14:00,
2013-03-17 15:19:00,60.4,51.0,29.95,ENE,76,0.0,7.0,71,0.00,,,0.00,Wunderground v.1.15,2013-03-17 22:19:00,
2013-03-17 15:24:00,60.5,51.0,29.95,SW,230,2.0,2.0,71,0.00,,,0.00,Wunderground v.1.15,2013-03-17 22:24:00,
2013-03-17 15:29:00,60.4,51.0,29.94,NNE,30,0.0,4.0,71,0.00,,,0.00,Wunderground v.1.15,2013-03-17 22:29:00,
2013-03-17 15:34:00,60.5,51.0,29.94,WSW,240,4.0,6.0,71,0.00,,,0.00,Wunderground v.1.15,2013-03-17 22:34:00,
2013-03-17 15:39:00,60.7,51.6,29.94,WSW,240,1.0,6.0,72,0.00,,,0.00,Wunderground v.1.15,2013-03-17 22:39:00,
2013-03-17 15:44:00,60.5,51.0,29.94,SW,228,0.0,5.0,71,0.00,,,0.00,Wunderground v.1.15,2013-03-17 22:44:00,
2013-03-17 15:49:00,60.2,51.1,29.94,West,262,3.0,6.0,72,0.00,,,0.00,Wunderground v.1.15,2013-03-17 22:49:00,
2013-03-17 15:54:00,59.9,51.2,29.94,West,272,0.0,3.0,73,0.00,,,0.00,Wunderground v.1.15,2013-03-17 22:54:00,
2013-03-17 15:59:00,59.5,50.8,29.95,ENE,59,6.0,8.0,73,0.00,,,0.00,Wunderground v.1.15,2013-03-17 22:59:00,
2013-03-17 16:04:00,58.7,50.8,29.95,WSW,245,1.0,10.0,75,0.00,,,0.00,Wunderground v.1.15,2013-03-17 23:04:00,
2013-03-17 16:09:00,58.4,50.5,29.95,ESE,117,3.0,10.0,75,0.00,,,0.00,Wunderground v.1.15,2013-03-17 23:09:00,
2013-03-17 16:14:00,57.6,50.1,29.95,SW,236,2.0,7.0,76,0.00,,,0.00,Wunderground v.1.15,2013-03-17 23:14:00,
2013-03-17 16:19:00,56.9,49.8,29.95,WSW,237,4.0,7.0,77,0.00,,,0.00,Wunderground v.1.15,2013-03-17 23:19:00,
2013-03-17 16:24:00,56.2,49.8,29.95,West,262,0.0,5.0,79,0.00,,,0.00,Wunderground v.1.15,2013-03-17 23:24:00,
2013-03-17 16:29:00,56.0,49.9,29.95,NNW,329,1.0,5.0,80,0.00,,,0.00,Wunderground v.1.15,2013-03-17 23:29:00,
2013-03-17 16:34:00,56.3,50.2,29.95,WNW,295,2.0,3.0,80,0.00,,,0.00,Wunderground v.1.15,2013-03-17 23:34:00,
2013-03-17 16:39:00,56.6,50.5,29.95,SE,146,0.0,4.0,80,0.00,,,0.00,Wunderground v.1.15,2013-03-17 23:39:00,
2013-03-17 16:44:00,57.0,50.9,29.95,WNW,296,0.0,4.0,80,0.00,,,0.00,Wunderground v.1.15,2013-03-17 23:44:00,
2013-03-17 16:49:00,56.6,50.2,29.95,SSW,207,0.0,5.0,79,0.00,,,0.00,Wunderground v.1.15,2013-03-17 23:49:00,
2013-03-17 16:54:00,56.0,49.9,29.95,NNW,342,0.0,6.0,80,0.00,,,0.00,Wunderground v.1.15,2013-03-17 23:54:00,
2013-03-17 16:59:00,55.6,49.9,29.95,WNW,293,0.0,6.0,81,0.00,,,0.00,Wunderground v.1.15,2013-03-17 23:59:00,
2013-03-17 17:04:00,54.8,49.4,29.95,SSW,210,3.0,6.0,82,0.00,,,0.00,Wunderground v.1.15,2013-03-18 00:04:00,
2013-03-17 17:09:00,54.4,49.7,29.95,South,184,0.0,6.0,84,0.00,,,0.00,Wunderground v.1.15,2013-03-18 00:09:00,
2013-03-17 17:14:00,54.1,49.4,29.95,NNE,20,5.0,5.0,84,0.00,,,0.00,Wunderground v.1.15,2013-03-18 00:14:00,
2013-03-17 17:19:00,53.9,49.5,29.95,West,274,0.0,9.0,85,0.00,,,0.00,Wunderground v.1.15,2013-03-18 00:19:00,
2013-03-17 17:24:00,53.8,49.7,29.95,WSW,250,1.0,11.0,86,0.00,,,0.00,Wunderground v.1.15,2013-03-18 00:24:00,
2013-03-17 17:29:00,54.1,49.7,29.94,WNW,296,0.0,11.0,85,0.00,,,0.00,Wunderground v.1.15,2013-03-18 00:29:00,
2013-03-17 17:34:00,54.2,49.8,29.94,SSE,165,1.0,2.0,85,0.00,,,0.00,Wunderground v.1.15,2013-03-18 00:34:00,
2013-03-17 17:39:00,54.2,49.8,29.94,NE,39,0.0,5.0,85,0.00,,,0.00,Wunderground v.1.15,2013-03-18 00:39:00,
2013-03-17 17:44:00,53.9,49.5,29.95,NNW,335,0.0,6.0,85,0.00,,,0.00,Wunderground v.1.15,2013-03-18 00:44:00,
2013-03-17 17:49:00,53.6,49.5,29.95,NW,323,0.0,6.0,86,0.00,,,0.00,Wunderground v.1.15,2013-03-18 00:49:00,
2013-03-17 17:54:00,53.2,49.1,29.95,South,190,0.0,3.0,86,0.00,,,0.00,Wunderground v.1.15,2013-03-18 00:54:00,
2013-03-17 17:59:00,52.8,49.0,29.95,SE,145,3.0,4.0,87,0.00,,,0.00,Wunderground v.1.15,2013-03-18 00:59:00,
2013-03-17 18:04:00,52.3,48.9,29.95,WNW,301,1.0,9.0,88,0.00,,,0.00,Wunderground v.1.15,2013-03-18 01:04:00,
2013-03-17 18:09:00,52.0,48.6,29.95,North,1,1.0,9.0,88,0.00,,,0.00,Wunderground v.1.15,2013-03-18 01:09:00,
2013-03-17 18:14:00,51.7,48.6,29.95,SSE,160,0.0,3.0,89,0.00,,,0.00,Wunderground v.1.15,2013-03-18 01:14:00,
2013-03-17 18:19:00,51.6,48.5,29.95,SSE,161,0.0,3.0,89,0.00,,,0.00,Wunderground v.1.15,2013-03-18 01:19:00,
2013-03-17 18:24:00,51.3,48.5,29.95,SSW,207,4.0,9.0,90,0.00,,,0.00,Wunderground v.1.15,2013-03-18 01:24:00,
2013-03-17 18:29:00,51.1,48.3,29.95,East,94,2.0,9.0,90,0.00,,,0.00,Wunderground v.1.15,2013-03-18 01:29:00,
2013-03-17 18:34:00,51.1,48.6,29.95,North,1,0.0,3.0,91,0.00,,,0.00,Wunderground v.1.15,2013-03-18 01:34:00,
2013-03-17 18:39:00,51.1,48.6,29.95,West,279,0.0,3.0,91,0.00,,,0.00,Wunderground v.1.15,2013-03-18 01:39:00,
2013-03-17 18:44:00,51.1,48.9,29.95,West,270,2.0,5.0,92,0.00,,,0.00,Wunderground v.1.15,2013-03-18 01:44:00,
2013-03-17 18:49:00,51.1,48.9,29.95,North,354,3.0,6.0,92,0.00,,,0.00,Wunderground v.1.15,2013-03-18 01:49:00,
2013-03-17 18:54:00,51.0,48.8,29.95,SSE,165,1.0,3.0,92,0.00,,,0.00,Wunderground v.1.15,2013-03-18 01:54:00,
2013-03-17 18:59:00,51.0,48.8,29.95,ESE,103,0.0,3.0,92,0.00,,,0.00,Wunderground v.1.15,2013-03-18 01:59:00,
2013-03-17 19:04:00,50.8,48.6,29.95,ENE,63,0.0,4.0,92,0.00,,,0.00,Wunderground v.1.15,2013-03-18 02:04:00,
2013-03-17 19:09:00,50.8,48.6,29.95,South,174,2.0,4.0,92,0.00,,,0.00,Wunderground v.1.15,2013-03-18 02:09:00,
2013-03-17 19:14:00,50.7,48.5,29.95,North,1,1.0,2.0,92,0.00,,,0.00,Wunderground v.1.15,2013-03-18 02:14:00,
2013-03-17 19:19:00,50.5,48.3,29.95,West,281,1.0,4.0,92,0.00,,,0.00,Wunderground v.1.15,2013-03-18 02:19:00,
2013-03-17 19:24:00,50.4,48.2,29.95,West,265,0.0,3.0,92,0.00,,,0.00,Wunderground v.1.15,2013-03-18 02:24:00,
2013-03-17 19:29:00,50.2,48.3,29.95,West,264,0.0,3.0,93,0.00,,,0.00,Wunderground v.1.15,2013-03-18 02:29:00,
2013-03-17 19:34:00,50.1,48.2,29.95,North,0,0.0,1.0,93,0.00,,,0.00,Wunderground v.1.15,2013-03-18 02:34:00,
2013-03-17 19:39:00,49.9,48.0,29.95,North,0,0.0,1.0,93,0.00,,,0.00,Wunderground v.1.15,2013-03-18 02:39:00,
2013-03-17 19:44:00,49.8,47.9,29.94,SE,125,0.0,1.0,93,0.00,,,0.00,Wunderground v.1.15,2013-03-18 02:44:00,
2013-03-17 19:49:00,49.6,47.7,29.94,SE,125,0.0,1.0,93,0.00,,,0.00,Wunderground v.1.15,2013-03-18 02:49:00,
2013-03-17 19:54:00,49.5,47.8,29.94,SE,125,0.0,0.0,94,0.00,,,0.00,Wunderground v.1.15,2013-03-18 02:54:00,
2013-03-17 19:59:00,49.2,47.5,29.94,SE,125,0.0,0.0,94,0.00,,,0.00,Wunderground v.1.15,2013-03-18 02:59:00,
2013-03-17 20:04:00,49.1,47.4,29.94,SE,125,0.0,0.0,94,0.00,,,0.00,Wunderground v.1.15,2013-03-18 03:04:00,
2013-03-17 20:09:00,48.9,47.5,29.94,SE,125,0.0,1.0,95,0.00,,,0.00,Wunderground v.1.15,2013-03-18 03:09:00,
2013-03-17 20:14:00,48.8,47.4,29.94,SE,125,0.0,0.0,95,0.00,,,0.00,Wunderground v.1.15,2013-03-18 03:14:00,
2013-03-17 20:19:00,48.8,47.4,29.94,SE,125,0.0,0.0,95,0.00,,,0.00,Wunderground v.1.15,2013-03-18 03:19:00,
2013-03-17 20:24:00,48.5,47.1,29.94,SE,125,0.0,0.0,95,0.00,,,0.00,Wunderground v.1.15,2013-03-18 03:24:00,
2013-03-17 20:29:00,48.3,46.9,29.95,SE,125,0.0,0.0,95,0.00,,,0.00,Wunderground v.1.15,2013-03-18 03:29:00,
2013-03-17 20:34:00,48.0,46.9,29.95,SE,125,0.0,0.0,96,0.00,,,0.00,Wunderground v.1.15,2013-03-18 03:34:00,
2013-03-17 20:39:00,47.9,46.8,29.95,SE,125,0.0,0.0,96,0.00,,,0.00,Wunderground v.1.15,2013-03-18 03:39:00,
2013-03-17 20:44:00,47.7,46.6,29.95,SE,125,0.0,0.0,96,0.00,,,0.00,Wunderground v.1.15,2013-03-18 03:44:00,
2013-03-17 20:49:00,47.6,46.5,29.95,SE,125,0.0,0.0,96,0.00,,,0.00,Wunderground v.1.15,2013-03-18 03:49:00,
2013-03-17 20:54:00,47.6,46.5,29.95,SE,125,0.0,0.0,96,0.00,,,0.00,Wunderground v.1.15,2013-03-18 03:54:00,
2013-03-17 20:59:00,47.4,46.3,29.95,SE,125,0.0,0.0,96,0.00,,,0.00,Wunderground v.1.15,2013-03-18 03:59:00,
2013-03-17 21:00:00,47.4,46.3,29.95,SE,125,0.0,0.0,96,0.00,,,0.00,Wunderground v.1.15,2013-03-18 04:00:00,
2013-03-17 21:05:00,47.3,46.5,29.95,SE,125,0.0,0.0,97,0.00,,,0.00,Wunderground v.1.15,2013-03-18 04:05:00,
2013-03-17 21:10:00,47.1,46.3,29.95,SE,125,0.0,0.0,97,0.00,,,0.00,Wunderground v.1.15,2013-03-18 04:10:00,
2013-03-17 21:15:00,47.0,46.2,29.95,SE,125,0.0,0.0,97,0.00,,,0.00,Wunderground v.1.15,2013-03-18 04:15:00,
2013-03-17 21:20:00,46.8,46.0,29.95,SE,125,0.0,0.0,97,0.00,,,0.00,Wunderground v.1.15,2013-03-18 04:20:00,
2013-03-17 21:25:00,46.5,45.7,29.95,SE,125,0.0,0.0,97,0.00,,,0.00,Wunderground v.1.15,2013-03-18 04:25:00,
2013-03-17 21:30:00,46.2,45.4,29.95,SE,125,0.0,0.0,97,0.00,,,0.00,Wunderground v.1.15,2013-03-18 04:30:00,
2013-03-17 21:35:00,46.1,45.3,29.95,SE,125,0.0,0.0,97,0.00,,,0.00,Wunderground v.1.15,2013-03-18 04:35:00,
2013-03-17 21:40:00,46.0,45.5,29.95,SE,125,0.0,0.0,98,0.00,,,0.00,Wunderground v.1.15,2013-03-18 04:40:00,
2013-03-17 21:45:00,46.2,45.7,29.95,SE,125,1.0,2.0,98,0.00,,,0.00,Wunderground v.1.15,2013-03-18 04:45:00,
2013-03-17 21:50:00,46.4,45.9,29.95,SE,125,0.0,0.0,98,0.00,,,0.00,Wunderground v.1.15,2013-03-18 04:50:00,
2013-03-17 21:55:00,46.2,45.7,29.95,SE,125,0.0,0.0,98,0.00,,,0.00,Wunderground v.1.15,2013-03-18 04:55:00,
2013-03-17 22:00:00,46.0,45.5,29.95,SE,125,0.0,0.0,98,0.00,,,0.00,Wunderground v.1.15,2013-03-18 05:00:00,
2013-03-17 22:05:00,45.8,45.3,29.95,SE,125,0.0,0.0,98,0.00,,,0.00,Wunderground v.1.15,2013-03-18 05:05:00,
2013-03-17 22:10:00,45.8,45.5,29.95,SE,125,0.0,0.0,99,0.00,,,0.00,Wunderground v.1.15,2013-03-18 05:10:00,
2013-03-17 22:15:00,45.8,45.5,29.96,SE,125,0.0,0.0,99,0.00,,,0.00,Wunderground v.1.15,2013-03-18 05:15:00,
2013-03-17 22:20:00,45.8,45.8,29.96,SE,125,0.0,0.0,100,0.00,,,0.00,Wunderground v.1.15,2013-03-18 05:20:00,
2013-03-17 22:25:00,45.8,45.8,29.96,SE,125,0.0,0.0,100,0.00,,,0.00,Wunderground v.1.15,2013-03-18 05:25:00,
2013-03-17 22:30:00,45.8,45.8,29.97,SE,125,0.0,0.0,100,0.00,,,0.00,Wunderground v.1.15,2013-03-18 05:30:00,
2013-03-17 22:35:00,45.8,45.8,29.97,SE,125,0.0,0.0,100,0.00,,,0.00,Wunderground v.1.15,2013-03-18 05:35:00,
2013-03-17 22:40:00,45.7,45.7,29.97,SE,125,0.0,0.0,100,0.00,,,0.00,Wunderground v.1.15,2013-03-18 05:40:00,
2013-03-17 22:45:00,45.8,45.8,29.97,SE,125,0.0,0.0,100,0.00,,,0.00,Wunderground v.1.15,2013-03-18 05:45:00,
2013-03-17 22:50:00,45.8,45.8,29.97,SE,125,0.0,0.0,100,0.00,,,0.00,Wunderground v.1.15,2013-03-18 05:50:00,
2013-03-17 22:55:00,45.8,45.8,29.97,SE,125,0.0,0.0,100,0.00,,,0.00,Wunderground v.1.15,2013-03-18 05:55:00,
2013-03-17 23:00:00,45.7,45.7,29.98,SE,125,0.0,0.0,100,0.00,,,0.00,Wunderground v.1.15,2013-03-18 06:00:00,
2013-03-17 23:05:00,45.2,45.2,29.98,SE,125,0.0,0.0,100,0.00,,,0.00,Wunderground v.1.15,2013-03-18 06:05:00,
2013-03-17 23:10:00,44.9,44.9,29.98,SE,125,0.0,0.0,100,0.00,,,0.00,Wunderground v.1.15,2013-03-18 06:10:00,
2013-03-17 23:15:00,44.9,44.9,29.97,SE,125,0.0,1.0,100,0.00,,,0.00,Wunderground v.1.15,2013-03-18 06:15:00,
2013-03-17 23:20:00,44.9,44.9,29.97,SE,125,1.0,1.0,100,0.00,,,0.00,Wunderground v.1.15,2013-03-18 06:20:00,
2013-03-17 23:25:00,45.1,45.1,29.97,SE,125,0.0,2.0,100,0.00,,,0.00,Wunderground v.1.15,2013-03-18 06:25:00,
2013-03-17 23:30:00,44.6,44.6,29.97,SE,125,0.0,0.0,100,0.00,,,0.00,Wunderground v.1.15,2013-03-18 06:30:00,
2013-03-17 23:36:00,44.3,44.3,29.97,SE,125,0.0,0.0,100,0.00,,,0.00,Wunderground v.1.15,2013-03-18 06:36:00,
2013-03-17 23:41:00,44.3,44.3,29.97,SE,125,0.0,0.0,100,0.00,,,0.00,Wunderground v.1.15,2013-03-18 06:41:00,
2013-03-17 23:46:00,44.3,44.3,29.97,SE,125,0.0,0.0,100,0.00,,,0.00,Wunderground v.1.15,2013-03-18 06:46:00,
2013-03-17 23:51:00,44.2,44.2,29.97,SE,125,0.0,0.0,100,0.00,,,0.00,Wunderground v.1.15,2013-03-18 06:51:00,
2013-03-17 23:56:00,44.1,44.1,29.97,SE,125,0.0,0.0,100,0.00,,,0.00,Wunderground v.1.15,2013-03-18 06:56:00,